Location: ??????
(30.0216°N, 31.2256°E)
Time: 02:09:56
(UTC+00:00)

Daily predictions for brighter satellites

Satellite Brightness Start Highest point End
(mag) Time Altitude Azimuth Time Altitude Azimuth Time Altitude Azimuth
ADEOS II 2.7 00:04:11 10° NNE 00:09:12 47° E 00:09:23 46° ESE
Cosmos 2263 Rocket 4.3 00:05:39 10° N 00:10:08 24° ENE 00:14:33 10° ESE
Envisat 3.9 00:07:51 10° NNE 00:12:34 39° E 00:13:00 38° ESE
Cosmos 2297 Rocket 3.0 00:11:23 10° NNW 00:15:01 38° NW 00:15:01 38° NW
CZ-2D R/B 2.0 00:14:51 10° NNE 00:19:52 83° N 00:19:52 83° N
Cosmos 1980 Rocket 2.4 00:23:29 55° WNW 00:23:29 55° WNW 00:28:45 10° N
OAO 2 Rocket 3.4 00:23:52 71° NNE 00:23:52 71° NNE 00:28:30 10° ENE
Cosmos 1745 Rocket 4.1 00:27:46 57° W 00:28:04 58° W 00:34:20 10° N
Meteor 2-6 Rocket 4.3 00:23:51 10° N 00:29:37 79° E 00:31:02 53° SSE
SeaSat 1 3.0 00:31:58 45° NW 00:31:58 45° NW 00:35:29 10° NNW
Cosmos 1697 Rocket 4.4 00:32:50 19° WNW 00:32:53 19° WNW 00:36:50 10° NNW
Nadezhda 1 Rocket 3.8 00:27:31 10° N 00:33:43 73° W 00:34:36 63° SW
Milstar 3 Cent rocket 3.9 00:35:28 19° SE 00:35:28 19° SE 00:37:48 10° ESE
Resurs 1-4 Rocket 2.2 00:29:21 10° N 00:34:32 57° WNW 00:34:32 57° WNW
Tiangong 0.7 00:38:11 14° NNW 00:38:26 14° NNW 00:40:18 10° NNE
Cosmos 468 4.3 00:34:02 10° NNW 00:39:20 76° WSW 00:39:36 74° SW
CENTAUR R/B 3.8 00:37:29 17° SE 00:39:30 22° ESE 00:43:44 10° ENE
Cosmos 1709 Rocket 4.0 00:41:17 54° SW 00:42:23 63° W 00:48:42 10° N
Cosmos 1346 Rocket 3.2 00:44:42 55° ENE 00:44:42 55° ENE 00:47:51 10° NNE
Cosmos 2150 Rocket 4.1 00:43:56 57° W 00:44:19 59° WNW 00:49:41 10° N
H-2A R/B 3.4 00:40:05 10° NE 00:44:23 30° E 00:46:59 19° SE
Cosmos 614 Rocket 4.0 00:43:18 10° N 00:48:21 72° ENE 00:50:54 29° SSE
Cosmos 2227 Rocket 2.1 00:42:48 10° NNW 00:48:26 69° WSW 00:49:40 53° SSW
ATLAS 2AS CENTAUR R/B 4.4 00:49:02 10° N 00:54:55 31° NE 01:00:45 10° ESE
OAO 3 Rocket 4.2 00:55:58 30° SSE 00:55:58 30° SSE 00:59:58 10° E
AQUA 3.7 00:52:05 10° NNE 00:56:48 83° ESE 00:57:53 53° S
H-2A R/B 4.1 00:56:27 10° NNW 00:58:11 15° NW 00:58:11 15° NW
Cosmos 2360 Rocket 4.0 00:57:24 10° SSE 01:01:50 25° ESE 01:06:15 10° NE
Yuri Rocket 2.7 01:04:30 67° SSW 01:04:43 69° S 01:09:00 10° E
CZ-2C R/B 4.0 01:03:29 10° NE 01:07:54 31° E 01:12:22 10° SSE
ASC 2 Rocket 4.4 01:10:00 28° S 01:10:33 29° SSE 01:15:39 10° ESE
ALOS 2.9 01:06:27 10° N 01:10:35 35° WNW 01:10:57 34° W
USA 290 3.2 01:07:38 10° N 01:10:49 47° ENE 01:12:39 21° SE
Cosmos 1743 3.1 01:12:09 41° NW 01:12:09 41° NW 01:14:46 10° N
Cosmos 2221 3.3 01:12:43 10° NNW 01:16:11 33° W 01:16:11 33° W
Cosmos 2322 Rocket 3.2 01:13:04 16° S 01:17:17 43° ESE 01:22:35 10° NE
USA 281 4.2 01:11:31 10° NE 01:17:41 42° ESE 01:23:48 10° S
Cosmos 1953 Rocket 3.8 01:19:48 42° WSW 01:20:37 47° W 01:24:51 10° N
Cosmos 2333 Rocket 2.9 01:17:57 17° S 01:22:08 51° ESE 01:27:39 10° NNE
Cosmos 1295 Rocket 4.4 01:17:50 20° S 01:22:15 86° E 01:28:23 10° N
Cosmos 2219 Rocket 4.4 01:18:53 10° SE 01:22:49 20° E 01:26:45 10° NE
Cosmos 2184 Rocket 4.0 01:21:12 17° S 01:26:13 87° E 01:32:36 10° N
Hubble Space Telescope 0.6 01:27:10 46° SW 01:28:03 62° S 01:31:51 10° E
Aurora 2 Rocket 3.5 01:28:34 19° SSE 01:28:34 19° SSE 01:30:34 10° ESE
Meteor 1-19 Rocket 4.2 01:24:14 10° NNW 01:29:38 62° W 01:34:11 15° S
Meteor 1-5 Rocket 4.2 01:27:21 20° SSW 01:31:32 80° W 01:37:20 10° N
USA 234 3.7 01:26:24 10° NNE 01:32:37 49° NW 01:36:53 21° WSW
Intelsat 5-2 Rocket 3.5 01:36:14 22° SSE 01:36:14 22° SSE 01:37:48 10° SE
Cosmos 2154 Rocket 4.0 01:30:37 13° S 01:36:12 90° NW 01:42:29 10° N
Centaur AC-112 4.3 01:27:48 10° W 01:36:46 26° SW 01:40:07 10° SSE
Meteor 1-28 Rocket 2.9 01:34:07 13° SSE 01:37:04 80° ENE 01:40:25 10° N
Cosmos 2082 3.6 01:32:43 10° NNW 01:38:24 88° WSW 01:44:01 10° SSE
SL-16 R/B 2.5 01:33:36 10° S 01:39:49 79° WSW 01:46:06 10° NNW
SL-16 R/B 2.3 01:38:39 24° SW 01:42:02 59° WNW 01:47:37 10° N
Cosmos 2219 3.3 01:41:22 10° NNW 01:46:51 52° WSW 01:52:16 10° S
ADEOS II 3.8 01:45:10 10° NNW 01:48:19 16° WNW 01:50:12 14° W
ARGOS 3.7 01:42:59 10° NNE 01:48:20 60° E 01:53:39 10° S
ADEOS Rocket 4.0 01:42:48 10° NNE 01:50:22 66° ESE 01:58:04 10° S
Cosmos 1733 3.9 01:50:17 22° W 01:50:29 22° W 01:52:56 10° NNW
Cosmos 921 Rocket 3.4 01:47:44 10° NNW 01:51:51 40° W 01:55:42 11° SSW
Helios 1A Rocket 4.3 01:48:45 10° SE 01:52:00 35° ENE 01:55:15 10° N
Cosmos 1707 2.3 01:48:47 10° N 01:52:04 80° E 01:55:19 10° S
GMS 1 Rocket B 4.4 01:50:51 18° W 01:53:48 80° S 01:58:43 10° E
Cosmos 2263 Rocket 2.7 01:48:58 10° NW 01:54:00 35° WSW 01:59:00 10° SSW
JB-3 4.2 01:54:16 10° SSE 01:57:55 80° ENE 02:01:37 10° N
Intelsat 5-1 Rocket 4.3 01:39:52 10° W 02:00:28 61° SSW 02:07:12 10° ESE
Cosmos 2074 Rocket 4.4 01:56:57 14° SSW 02:01:54 43° W 02:07:46 10° N
Cosmos 1805 4.0 02:00:20 10° SSE 02:03:37 45° E 02:06:55 10° NNE
SWIFT 3.7 02:04:37 15° SSW 02:06:01 18° S 02:08:32 10° SE
KORONAS-FOTON 4.0 02:04:48 10° NNW 02:08:08 40° W 02:11:26 10° SSW
OAO 2 Rocket 4.2 02:03:33 10° WNW 02:08:23 47° N 02:13:19 10° ENE
BREEZE-M DEB (TANK) 2.8 02:05:50 10° NW 02:08:24 74° NE 02:14:36 10° SE
Uosat 12 SS-18 rocket 3.9 02:05:04 13° SSW 02:08:48 78° WNW 02:13:10 10° NNE
Meteor 1-27 Rocket 4.3 02:03:33 10° NNW 02:09:02 40° W 02:14:29 10° SSW
ARGOS Delta rocket 4.4 02:05:26 10° N 02:10:29 47° WNW 02:15:17 10° SSW
Cosmos 1151 Rocket 4.0 02:06:20 10° N 02:10:32 50° E 02:14:41 10° SSE
IRS-1D 4.2 02:06:19 10° NNE 02:11:08 52° E 02:15:54 10° S
Cosmos 44 Rocket 3.6 02:07:35 14° SW 02:11:16 46° WNW 02:15:46 10° NNE
NOSS 3-2 (A) 3.2 02:07:44 10° SSW 02:12:23 64° ESE 02:17:37 10° NE
Cosmos 2333 4.2 02:10:08 10° SSW 02:15:49 87° WNW 02:21:28 10° NNE
Tiangong 1.0 02:15:11 10° NNW 02:16:26 12° N 02:17:41 10° NNE
USA 276 1.4 02:16:08 14° SW 02:18:19 86° SE 02:20:43 10° NE
CZ-3 Stage 3 4.5 02:13:45 11° WSW 02:21:36 83° SSE 03:00:33 10° E
Cosmos 2227 4.3 02:16:14 10° NNW 02:21:57 86° ENE 02:27:39 10° SSE
H-2A R/B 3.3 02:19:46 10° NNW 02:23:27 21° WNW 02:27:06 10° WSW
PAYLOAD A 4.4 02:18:20 10° N 02:23:31 50° WNW 02:28:34 10° SSW
Cosmos 405 Rocket 2.3 02:25:32 10° S 02:28:47 85° E 02:32:02 10° N
Cosmos 1939 Rocket 2.7 02:24:58 10° N 02:28:48 79° WNW 02:32:38 10° SSW
Cosmos 1844 4.3 02:23:42 10° NNW 02:29:21 66° ENE 02:35:03 10° SSE
CENTAUR R/B 3.0 02:24:46 10° WSW 02:29:29 36° NW 02:35:12 10° NNE
BlueWalker 3 2.2 02:27:32 10° NW 02:31:08 66° NE 02:34:43 10° SE
Delta 2 Rocket 3.4 02:31:29 10° WSW 02:35:37 67° SSE 02:39:35 10° ENE
Centaur D-1A AC-31 2.9 02:29:23 10° WSW 02:50:25 61° S 02:54:54 10° E
